Flag for Dominican Republic Weather past 2 weeks in Punta Cana, Dominican Republic

Now
79 °F

Passing clouds.


Feels Like: 82 °F
Forecast: 76 / 87 °F
Wind: 6 mph from Southwest

Location: Punta Cana

Current Time: Apr 27, 2015 at 2:14:46 AM

Latest Report: Apr 27, 2015 at 2:00 AM


Visibility: N/A

Pressure: 29.89 "Hg

Humidity: 84%

Dew point: 73 °F

Location of Punta CanaLocation

Historic Weather in Punta Cana — Graph

°F

Punta Cana temperature yesterday

Maximum temperature yesterday: 88 °F (at 3:00 PM)
Minimum temperature yesterday: 72 °F (at 5:00 AM)
Average temperature yesterday: 80 °F

Past Weeks' High & Low Weather Summary

 TemperatureHumidityPressure
High88 °F (Apr 24, 2:00 PM)100% (Apr 19, 3:00 AM)30.12 "Hg (Apr 19, 3:00 AM)
Low70 °F (Apr 25, 6:00 AM)58% (Apr 12, 1:00 PM)29.89 "Hg (Apr 25, 5:00 PM)
Average80 °F76%30.01 "Hg
* Reported Apr 12 1:00 AM — Apr 27 1:00 AM, Punta Cana, Weather by CustomWeather, © 2015

Note: Actual official high and low records may vary slightly from our data, if they occured in-between our weather recording intervals... More about our weather records

Advertising

Punta Cana weather history for previous 24 hours

 ConditionsComfort  
Time TempWeatherWind HumidityBarometerVisibility
1:00 AM
Mon, Apr 27
79 °FPassing clouds.6 mph84%29.92 "HgN/A
12:00 AM79 °FPassing clouds.6 mph84%29.95 "HgN/A
11:00 PM
Sun, Apr 26
79 °FPassing clouds.6 mph84%29.95 "HgN/A
10:00 PM79 °FPassing clouds.6 mph84%29.95 "HgN/A
9:00 PM81 °FPassing clouds.7 mph79%29.92 "HgN/A
8:00 PM81 °FPassing clouds.7 mph79%29.92 "HgN/A
7:00 PM81 °FPassing clouds.6 mph79%29.92 "HgN/A
6:00 PM82 °FPassing clouds.9 mph74%29.89 "HgN/A
5:00 PM84 °FPassing clouds.12 mph74%29.89 "HgN/A
4:00 PM84 °FPassing clouds.9 mph74%29.92 "HgN/A
3:00 PM88 °FScattered clouds.12 mph66%29.92 "HgN/A
2:00 PM86 °FPassing clouds.12 mph66%29.92 "HgN/A
1:00 PM86 °FPassing clouds.13 mph66%29.95 "HgN/A
12:00 PM86 °FPassing clouds.12 mph66%29.95 "HgN/A
11:00 AM86 °FPassing clouds.9 mph66%29.98 "HgN/A
10:00 AM84 °FPassing clouds.9 mph70%29.98 "HgN/A
9:00 AM82 °FPassing clouds.9 mph74%29.98 "HgN/A
8:00 AM81 °FPassing clouds.5 mph79%29.95 "HgN/A
7:00 AM73 °FPassing clouds.No wind89%29.95 "HgN/A
6:00 AM72 °FPassing clouds.No wind88%29.92 "HgN/A
5:00 AM72 °FPassing clouds.No wind88%29.92 "HgN/A
4:00 AM75 °FPassing clouds.No wind89%29.92 "HgN/A
3:00 AM77 °FPassing clouds.2 mph83%29.92 "HgN/A
2:00 AM77 °FPassing clouds.No wind83%29.92 "HgN/A
Weather by CustomWeather, © 2015

See weather overviewHow to use our weather pages